Location: �terpigny
(49.8910°N, 2.9249°E)
Time: 14:53:50
(UTC+00:00)

A-11 Canister half - Visible Passes

Search period start: 27 May 2022 00:00
Search period end: 06 June 2022 00:00
Orbit: 1527 x 1682 km, 47.3° (Epoch: 26 May)

Date Brightness Start Highest point End Pass type
(mag) Time Alt. Az. Time Alt. Az. Time Alt. Az.
27 May 10.3 00:13:25 16° SSE 00:16:13 18° SE 00:21:58 10° E visible
27 May 9.4 02:11:40 14° SW 02:19:21 49° SSE 02:28:23 10° ENE visible
27 May 10.3 23:52:29 16° SE 23:54:39 17° SE 00:00:04 10° E visible
28 May 9.4 01:50:44 17° SSW 01:57:43 47° SSE 02:06:41 10° ENE visible
28 May 10.3 23:31:29 15° SE 23:33:05 16° SE 23:38:08 10° E visible
29 May 9.4 01:29:44 19° SSW 01:36:06 46° SSE 01:44:58 10° ENE visible
29 May 10.3 23:10:25 14° SE 23:11:32 15° SE 23:16:09 10° E visible
30 May 9.4 01:08:40 21° SSW 01:14:28 44° SE 01:23:15 10° ENE visible
30 May 10.4 22:49:17 14° SE 22:49:59 14° SE 22:54:07 10° E visible
31 May 9.4 00:47:32 23° SSW 00:52:52 42° SE 01:01:33 10° ENE visible
31 May 9.1 02:47:44 10° WSW 02:57:03 73° SSE 03:06:38 10° E visible
31 May 10.4 22:28:04 13° SE 22:28:26 13° SE 22:32:01 10° E visible
01 Jun 9.4 00:26:17 24° SSW 00:31:15 41° SE 00:39:51 10° ENE visible
01 Jun 9.0 02:26:07 10° WSW 02:35:23 72° SSE 02:44:56 10° E visible
01 Jun 10.4 22:06:43 12° SE 22:06:53 12° ESE 22:09:45 10° ESE visible
02 Jun 9.4 00:04:56 24° SSW 00:09:39 39° SE 00:18:08 10° E visible
02 Jun 9.0 02:04:28 10° WSW 02:13:43 71° SSE 02:23:14 10° E visible
02 Jun 10.4 21:45:13 11° ESE 21:45:21 11° ESE 21:47:14 10° ESE visible
02 Jun 9.4 23:43:26 24° S 23:48:03 38° SE 23:56:25 10° E visible
03 Jun 9.0 01:42:50 10° WSW 01:52:04 70° SSE 02:01:32 10° E visible
03 Jun 9.4 23:21:40 23° S 23:26:26 36° SE 23:34:42 10° E visible
04 Jun 9.0 01:21:11 10° WSW 01:30:25 69° SSE 01:39:51 10° E visible
04 Jun 9.5 22:59:32 20° S 23:04:50 35° SE 23:13:00 10° E visible
05 Jun 8.9 00:59:34 10° WSW 01:08:46 68° SSE 01:18:09 10° E visible
05 Jun 9.5 22:36:30 14° SSW 22:43:15 33° SE 22:51:16 10° E visible
